| time (UTC) | temp F | wind direction | speed MPH | gust MPH | rain 1hr in | rain 24hr in | rain mn in | humidity % | barometer mb |
| 20260509143043 | 55 | 214 | 6.0 | 11.0 | 0.00 | 0.00 | 0.00 | 41 | 1015.1 |
| 20260509141550 | 55 | 225 | 4.0 | 10.0 | 0.00 | 0.00 | 0.00 | 38 | 1015.2 |
| 20260509140059 | 54 | 241 | 6.0 | 16.0 | 0.00 | 0.00 | 0.00 | 40 | 1015.2 |
| 20260509134551 | 54 | 165 | 5.0 | 14.0 | 0.00 | 0.00 | 0.00 | 39 | 1015.3 |
| 20260509133048 | 53 | 146 | 4.0 | 14.0 | 0.00 | 0.00 | 0.00 | 40 | 1015.3 |
| 20260509131547 | 53 | 249 | 3.0 | 9.0 | 0.00 | 0.00 | 0.00 | 42 | 1015.5 |
| 20260509130048 | 52 | 221 | 7.0 | 10.0 | 0.00 | 0.00 | 0.00 | 42 | 1015.4 |
| 20260509124551 | 52 | 0 | 2.0 | 10.0 | 0.00 | 0.00 | 0.00 | 49 | 1015.5 |
| 20260509123050 | 51 | 261 | 5.0 | 10.0 | 0.00 | 0.00 | 0.00 | 44 | 1015.6 |
| 20260509121548 | 50 | 209 | 6.0 | 11.0 | 0.00 | 0.00 | 0.00 | 47 | 1015.7 |
| 20260509120047 | 50 | 204 | 2.0 | 7.0 | 0.00 | 0.00 | 0.00 | 48 | 1015.6 |
| 20260509114546 | 49 | 150 | 1.0 | 5.0 | 0.00 | 0.00 | 0.00 | 48 | 1015.7 |
| 20260509113046 | 47 | 218 | 2.0 | 3.0 | 0.00 | 0.00 | 0.00 | 60 | 1015.8 |
| 20260509111557 | 46 | 218 | 1.0 | 3.0 | 0.00 | 0.00 | 0.00 | 55 | 1015.7 |
| 20260509110049 | 45 | 218 | 1.0 | 2.0 | 0.00 | 0.00 | 0.00 | 53 | 1015.5 |
| 20260509104605 | 45 | 218 | 1.0 | 3.0 | 0.00 | 0.00 | 0.00 | 50 | 1015.5 |
| 20260509103100 | 46 | 0 | 0.0 | 1.0 | 0.00 | 0.00 | 0.00 | 47 | 1015.3 |
| 20260509101606 | 46 | 0 | 0.0 | 2.0 | 0.00 | 0.00 | 0.00 | 47 | 1015.0 |
| 20260509100055 | 46 | 218 | 0.0 | 2.0 | 0.00 | 0.00 | 0.00 | 47 | 1014.9 |
| 20260509094557 | 45 | 0 | 0.0 | 1.0 | 0.00 | 0.00 | 0.00 | 48 | 1014.5 |
| 20260509093053 | 45 | 0 | 0.0 | 2.0 | 0.00 | 0.00 | 0.00 | 48 | 1014.4 |
| 20260509091556 | 45 | 0 | 0.0 | 0.0 | 0.00 | 0.00 | 0.00 | 50 | 1014.3 |
| 20260509090059 | 45 | 0 | 0.0 | 0.0 | 0.00 | 0.00 | 0.00 | 50 | 1014.2 |
| 20260509084558 | 45 | 0 | 0.0 | 2.0 | 0.00 | 0.00 | 0.00 | 50 | 1014.3 |
| 20260509083106 | 45 | 0 | 0.0 | 1.0 | 0.00 | 0.00 | 0.00 | 51 | 1014.4 |
| 20260509081554 | 45 | 0 | 0.0 | 2.0 | 0.00 | 0.00 | 0.00 | 50 | 1014.4 |
| 20260509080051 | 45 | 0 | 0.0 | 3.0 | 0.00 | 0.00 | 0.00 | 51 | 1014.5 |
| 20260509074609 | 44 | 218 | 1.0 | 4.0 | 0.00 | 0.00 | 0.00 | 52 | 1014.4 |
| 20260509073105 | 44 | 0 | 1.0 | 4.0 | 0.00 | 0.00 | 0.00 | 53 | 1014.4 |
| 20260509071555 | 45 | 0 | 1.0 | 2.0 | 0.00 | 0.00 | 0.00 | 54 | 1014.2 |
| 20260509070056 | 45 | 228 | 0.0 | 1.0 | 0.00 | 0.00 | 0.00 | 57 | 1014.1 |
| 20260509064550 | 45 | 0 | 0.0 | 2.0 | 0.00 | 0.00 | 0.00 | 53 | 1014.1 |
| 20260509063100 | 45 | 228 | 1.0 | 3.0 | 0.00 | 0.00 | 0.00 | 52 | 1013.9 |
| 20260509061552 | 45 | 228 | 0.0 | 2.0 | 0.00 | 0.00 | 0.00 | 49 | 1013.7 |
| 20260509060107 | 46 | 228 | 1.0 | 2.0 | 0.00 | 0.00 | 0.00 | 48 | 1013.8 |
| 20260509054548 | 46 | 228 | 1.0 | 2.0 | 0.00 | 0.00 | 0.00 | 47 | 1013.8 |
| 20260509053103 | 46 | 228 | 0.0 | 2.0 | 0.00 | 0.00 | 0.00 | 48 | 1013.7 |
| 20260509051558 | 46 | 228 | 0.0 | 2.0 | 0.00 | 0.00 | 0.00 | 47 | 1013.8 |
| 20260509050052 | 46 | 228 | 1.0 | 2.0 | 0.00 | 0.00 | 0.00 | 48 | 1013.8 |
| 20260509044553 | 46 | 0 | 1.0 | 2.0 | 0.00 | 0.00 | 0.00 | 47 | 1013.8 |
| 20260509043058 | 46 | 228 | 1.0 | 2.0 | 0.00 | 0.00 | 0.00 | 47 | 1013.8 |
| 20260509041553 | 47 | 228 | 0.0 | 2.0 | 0.00 | 0.00 | 0.00 | 46 | 1013.7 |
| 20260509040105 | 46 | 228 | 0.0 | 2.0 | 0.00 | 0.00 | 0.00 | 47 | 1013.5 |
| 20260509034603 | 47 | 228 | 1.0 | 2.0 | 0.00 | 0.00 | 0.00 | 46 | 1013.4 |
| 20260509033109 | 46 | 306 | 0.0 | 2.0 | 0.00 | 0.00 | 0.00 | 46 | 1013.2 |
| 20260509031555 | 46 | 346 | 0.0 | 2.0 | 0.00 | 0.00 | 0.00 | 46 | 1013.1 |
| 20260509030056 | 46 | 346 | 0.0 | 2.0 | 0.00 | 0.00 | 0.00 | 46 | 1013.0 |
| 20260509024558 | 47 | 346 | 0.0 | 2.0 | 0.00 | 0.00 | 0.00 | 45 | 1012.9 |
| 20260509023058 | 47 | 0 | 0.0 | 2.0 | 0.00 | 0.00 | 0.00 | 45 | 1012.8 |
| 20260509021553 | 47 | 306 | 0.0 | 4.0 | 0.00 | 0.00 | 0.00 | 45 | 1012.6 |
| 20260509020105 | 47 | 11 | 2.0 | 4.0 | 0.00 | 0.00 | 0.00 | 45 | 1012.1 |
| 20260509014552 | 47 | 344 | 1.0 | 5.0 | 0.00 | 0.00 | 0.00 | 45 | 1012.0 |
| 20260509013049 | 47 | 335 | 1.0 | 5.0 | 0.00 | 0.00 | 0.00 | 45 | 1012.0 |
| 20260509011604 | 47 | 309 | 0.0 | 3.0 | 0.00 | 0.00 | 0.00 | 44 | 1011.8 |
| 20260509010050 | 48 | 26 | 0.0 | 4.0 | 0.00 | 0.00 | 0.00 | 44 | 1011.6 |
| 20260509004551 | 48 | 333 | 2.0 | 4.0 | 0.00 | 0.00 | 0.00 | 44 | 1011.3 |
| 20260509003057 | 48 | 0 | 2.0 | 4.0 | 0.00 | 0.00 | 0.00 | 43 | 1010.9 |
| 20260509001546 | 49 | 306 | 1.0 | 6.0 | 0.00 | 0.00 | 0.00 | 42 | 1010.7 |
| 20260509000052 | 50 | 290 | 3.0 | 9.0 | 0.00 | 0.00 | 0.00 | 41 | 1010.6 |
| 20260508234557 | 50 | 297 | 5.0 | 13.0 | 0.00 | 0.00 | 0.00 | 39 | 1010.3 |
| 20260508233053 | 51 | 306 | 2.0 | 12.0 | 0.00 | 0.00 | 0.00 | 38 | 1010.2 |
| 20260508231554 | 52 | 11 | 4.0 | 11.0 | 0.00 | 0.00 | 0.00 | 38 | 1010.1 |
| 20260508230054 | 52 | 192 | 2.0 | 11.0 | 0.00 | 0.00 | 0.00 | 38 | 1010.0 |
| 20260508224555 | 52 | 254 | 5.0 | 18.0 | 0.00 | 0.00 | 0.00 | 37 | 1009.9 |
| 20260508223052 | 52 | 217 | 5.0 | 12.0 | 0.00 | 0.00 | 0.00 | 40 | 1009.7 |
| 20260508221556 | 52 | 248 | 5.0 | 17.0 | 0.00 | 0.00 | 0.00 | 39 | 1009.7 |
| 20260508220055 | 53 | 36 | 5.0 | 20.0 | 0.00 | 0.00 | 0.00 | 39 | 1009.6 |
| 20260508214552 | 53 | 237 | 5.0 | 13.0 | 0.00 | 0.00 | 0.00 | 39 | 1009.5 |
| 20260508213055 | 52 | 196 | 7.0 | 23.0 | 0.00 | 0.00 | 0.00 | 41 | 1009.6 |
| 20260508211547 | 53 | 307 | 7.0 | 16.0 | 0.00 | 0.00 | 0.00 | 41 | 1009.5 |
| 20260508210052 | 52 | 219 | 8.0 | 19.0 | 0.00 | 0.00 | 0.00 | 42 | 1009.3 |
| 20260508204548 | 51 | 276 | 8.0 | 18.0 | 0.00 | 0.00 | 0.00 | 44 | 1009.4 |
| 20260508203051 | 52 | 256 | 8.0 | 21.0 | 0.00 | 0.00 | 0.00 | 45 | 1009.3 |
| 20260508201551 | 52 | 252 | 9.0 | 20.0 | 0.00 | 0.00 | 0.00 | 45 | 1008.9 |
| 20260508200047 | 52 | 234 | 4.0 | 16.0 | 0.00 | 0.00 | 0.00 | 45 | 1008.8 |
| 20260508194602 | 52 | 296 | 7.0 | 16.0 | 0.00 | 0.00 | 0.00 | 44 | 1008.7 |
| 20260508193105 | 52 | 280 | 6.0 | 16.0 | 0.00 | 0.00 | 0.00 | 42 | 1008.6 |
| 20260508191549 | 53 | 286 | 8.0 | 16.0 | 0.00 | 0.00 | 0.00 | 41 | 1008.4 |
| 20260508190103 | 52 | 265 | 8.0 | 19.0 | 0.00 | 0.00 | 0.00 | 42 | 1008.4 |
| 20260508184555 | 53 | 258 | 7.0 | 14.0 | 0.00 | 0.00 | 0.00 | 43 | 1008.4 |
| 20260508183045 | 52 | 229 | 8.0 | 16.0 | 0.00 | 0.00 | 0.00 | 43 | 1008.4 |
| 20260508181553 | 53 | 328 | 8.0 | 15.0 | 0.00 | 0.00 | 0.00 | 42 | 1008.3 |
| 20260508180049 | 53 | 290 | 8.0 | 23.0 | 0.00 | 0.00 | 0.00 | 41 | 1008.2 |
| 20260508174552 | 55 | 315 | 8.0 | 20.0 | 0.00 | 0.00 | 0.00 | 40 | 1008.3 |
| 20260508173047 | 53 | 267 | 7.0 | 16.0 | 0.00 | 0.00 | 0.00 | 44 | 1008.2 |
| 20260508171550 | 52 | 309 | 5.0 | 14.0 | 0.00 | 0.00 | 0.00 | 44 | 1008.2 |
| 20260508170058 | 53 | 295 | 3.0 | 12.0 | 0.00 | 0.00 | 0.00 | 43 | 1008.2 |
| 20260508164547 | 54 | 352 | 6.0 | 15.0 | 0.00 | 0.00 | 0.00 | 42 | 1008.2 |
| 20260508163100 | 52 | 5 | 7.0 | 15.0 | 0.00 | 0.00 | 0.00 | 44 | 1008.3 |
| 20260508161555 | 53 | 267 | 4.0 | 11.0 | 0.00 | 0.00 | 0.00 | 44 | 1008.3 |
| 20260508160054 | 52 | 290 | 5.0 | 12.0 | 0.00 | 0.00 | 0.00 | 44 | 1008.3 |
| 20260508154549 | 51 | 220 | 5.0 | 16.0 | 0.00 | 0.00 | 0.00 | 43 | 1008.4 |
| 20260508153104 | 52 | 254 | 6.0 | 17.0 | 0.00 | 0.00 | 0.00 | 41 | 1008.5 |
| 20260508151556 | 52 | 243 | 8.0 | 16.0 | 0.00 | 0.00 | 0.00 | 41 | 1008.4 |
| 20260508150045 | 52 | 329 | 8.0 | 17.0 | 0.00 | 0.00 | 0.00 | 41 | 1008.5 |
| 20260508144550 | 53 | 302 | 8.0 | 15.0 | 0.00 | 0.00 | 0.00 | 42 | 1008.6 |